Weather Roundup
Issued by NWS Chicago, IL

Home | Current Version | Previous Version | Graphics & Text | Print | Product List | Glossary On
Versions: 1 2 3 4 5 6 7 8 9 10 11 12 13 14 15 16 17 18 19 20 21 22 23 24 25 26 27 28 29 30 31 32 33 34 35 36 37 38 39 40 41 42 43 44 45 46 47 48 49 50
000
NZUS59 KLOT 102208
HRRLOT

CHICAGO AREA WEATHER ROUNDUP
NATIONAL WEATHER SERVICE CHICAGO/ROMEOVILLE IL
400 PM CST SAT DEC 10 2016

NOTE: "FAIR" INDICATES FEW OR NO CLOUDS BELOW 12,000 FEET WITH NO
SIGNIFICANT WEATHER AND/OR OBSTRUCTIONS TO VISIBILITY.

* THESE STATIONS ARE NOT UNDER NWS QUALITY CONTROL. THEY ALSO MAY NOT
  REPORT WEATHER SUCH AS PRECIPITATION OR FOG.

ILZ005-006-012>014-019>023-102300-
NORTHEAST ILLINOIS

CITY           SKY/WX    TMP DP  RH WIND       PRES   REMARKS
OHARE          LGT SNOW  23  14  68 SW7       30.41S WCI  15
MIDWAY         LGT SNOW  24  14  65 SW8       30.42S FOG     WCI  15
AURORA         LGT SNOW  23  18  81 S6        30.42S WCI  16
LANSING*       CLOUDY    24  17  77 S9        30.43S WCI  14
JOLIET*        LGT SNOW  25  19  78 S5        30.43S WCI  20
WAUKEGAN       CLOUDY    23  13  65 SW8       30.39S WCI  14
DUPAGE AIRPORT LGT SNOW  22  16  78 S8        30.41R WCI  12
WHEELING       CLOUDY    23  13  65 SW8       30.43S WCI  14
KANKAKEE*      FLURRIES  26  17  68 CALM      30.44S
MORRIS*        LGT SNOW  24  19  81 S3        30.42S
LEWIS AIRPORT* LGT SNOW  24  22  92 SW6       30.42S WCI  16
NORTHERLY ISL    N/A     24  14  65 S7          N/A  WCI  16
$$

WIZ051-052-058>065-066-070>072-102300-
SOUTHEAST WISCONSIN

CITY           SKY/WX    TMP DP  RH WIND       PRES   REMARKS
MILWAUKEE      CLOUDY    23  10  57 W9        30.39S WCI  13
KENOSHA*       CLOUDY    23  13  65 SW6       30.39S WCI  16
RACINE*        CLOUDY    23  12  62 SW5       30.40F WCI  17
BURLINGTON     CLOUDY    26  19  74 SW7       30.39R WCI  18
WAUKESHA       CLOUDY    19  10  68 SW5       30.38S WCI  13
WEST BEND      MOCLDY    19   9  63 W3        30.37S
$$

INZ001>003-010>013-019-020-102300-
NORTHWEST INDIANA

CITY           SKY/WX    TMP DP  RH WIND       PRES   REMARKS
GARY*          CLOUDY    27  16  63 SW5       30.43F WCI  21
MICHIGAN CITY* NOT AVBL
RENSSELAER*    NOT AVBL
VALPARAISO     CLOUDY    25  14  63 SW7       30.42F WCI  17
$$

LMZ740>746-102300-
SOUTHERN LAKE MICHIGAN

STATION/POSITION TIME  SKY/WX   TEMP WIND        PRES    VSBY
                                AIR  DIR/SP/G
                 (UTC)          (F)  (DEG/KT/KT) (MB)    (MI)
HARRISON CRIB    NOT AVBL
BURNHAM HARBOR   2200            24  200/  5/  8   N/A
CALUMET HARBOR   2130            24  200/  5/  7 1029.4F
BURNS HARBOR     2140            24  180/  6/ 10 1030.5F
MICHIGAN CITY    NOT AVBL
$$

ABBREVIATIONS USED IN REMARKS
   TC - TEMPERATURE IN CELSIUS
  WCI - WIND CHILL INDEX
   HX - HEAT INDEX
  VSB - VISIBILITY
$$




USA.gov is the U.S. government's official web portal to all federal, state and local government web resources and services.